Tracking 26951 objects as of 3-Feb-2023
HD Live streaming from Space Station
objects crossing your sky now

ARIANE 44LP R/B

Track ARIANE 44LP R/B now!
10-day predictions


NORAD ID: 26591
Int'l Code: 2000-068B
Perigee: 303.2 km
Apogee: 26,772.5 km
Inclination: 6.5 °
Period: 465.9 minutes
Semi major axis: 19908 km
RCS: 22.6845 m2 (large)
Launch date: October 29, 2000
Source: France (FR)
Launch site: FRENCH GUIANA (FRGUI)

Note: This is a ROCKET BODY
Your satellite tracking list
Your tracking list is empty




NASA's NSSDC Master Catalog

Two Line Element Set (TLE):
1 26591U 00068B   23033.96025780  .00002584  00000-0  10586-2 0  9996
2 26591   6.4744 123.7145 6647636  68.0593 347.2637  3.09053930219952
Source of the keplerian elements: AFSPC